Regional Weather Roundup
Issued by NWS

Home | Current Version | Previous Version | Graphics & Text | Print | Product List | Glossary On
Versions: 1 2 3 4 5 6 7 8 9 10 11 12 13 14 15 16 17 18 19 20 21 22 23 24 25 26 27 28 29 30 31 32 33 34 35 36 37 38 39 40 41 42 43 44 45 46 47 48 49 50
000
ASUS43 KDTX 290510
RWRMI
MICHIGAN HOURLY REGIONAL WEATHER ROUNDUP
NATIONAL WEATHER SERVICE DETROIT/PONTIAC MI
100 AM EDT THU JUN 29 2017

NOTE: "FAIR" INDICATES FEW OR NO CLOUDS BELOW 12,000 FEET WITH NO
SIGNIFICANT WEATHER AND/OR OBSTRUCTION TO VISIBILITY.

MIZ047>049-052>055-059>063-066>070-074>076-081>083-290600-
SOUTHEAST LOWER MICHIGAN

CITY           SKY/WX    TMP DP  RH WIND       PRES   REMARKS
ADRIAN         CLOUDY    72  53  51 SW15G24   29.93R
ALMA           LGT RAIN  63  59  88 W5        29.87F
ANN ARBOR      CLOUDY    70  54  56 S8        29.92S
BAD AXE        LGT RAIN  61  58  91 S9        29.92R
CARO           CLOUDY    62  58  87 SE8       29.90S
DETROIT CITY   CLOUDY    72  54  53 S12G20    29.94S
DETROIT        CLOUDY    73  54  51 S13       29.93F
FLINT          CLOUDY    64  57  78 S7        29.92R
GROSSE ILE     CLOUDY    70  60  71 S14       29.93S
HILLSDALE      CLOUDY    70  52  52 SW12G17   29.94R
HOWELL         CLOUDY    67  53  59 S3        29.94R

CITY           SKY/WX    TMP DP  RH WIND       PRES   REMARKS
JACKSON        CLOUDY    72  53  51 SW9       29.92R
LAMBERTVILLE   CLOUDY    72  54  52 SW10      29.93S
LANSING        LGT RAIN  67  56  67 S12G18    29.90R
LAPEER         CLOUDY    64  57  80 SE3       29.94R
MASON          LGT RAIN  70  55  59 S6        29.92R
MONROE         MOCLDY    71  54  53 S9        29.92S
MT. CLEMENS    DRIZZLE   70  59  68 S12       29.92S
PONTIAC        CLOUDY    71  53  52 S9        29.91F
PORT HOPE        N/A     62  58  86 S9G18     29.89F
PORT HURON     CLOUDY    63  57  82 SE6       29.94F
TRI CITIES     LGT RAIN  64  60  87 S8        29.87F
MIDLAND        LGT RAIN  64  57  80 S7        29.84F
TROY           CLOUDY    73  50  44 S8        29.94S
SAGINAW HB     CLOUDY    63  55  77 SE8       29.88F
$$
MIZ043>046-050>051-056>058-064>065-071>073-077>080-290600-
SOUTHWEST LOWER MICHIGAN

CITY           SKY/WX    TMP DP  RH WIND       PRES   REMARKS
BATTLE CREEK   RAIN      69  58  67 SW15      29.91R
BENTON HARBOR  RAIN      65  62  90 NE3       29.89F
BIG RAPIDS     RAIN      61  59  93 S9G18     29.77F
COLDWATER      CLOUDY    71  52  50 SW9       29.93R
FREMONT        RAIN      63  63 100 S13G18    29.79F
HOLLAND        RAIN      65  63  93 S8        29.88F
GRAND RAPIDS   LGT RAIN  63  63 100 S5        29.87F FOG
IONIA          LGT RAIN  64  59  86 W12G17    29.88R
KALAMAZOO      LGT RAIN  68  59  73 SW8       29.90R
LUDINGTON      CLOUDY    64  62  96 S9        29.74R
MARSHALL       CLOUDY    72  54  54 SW12G20   29.90R
MOUNT PLEASANT LGT RAIN  62  58  88 S13       29.82F
MUSKEGON       RAIN      65  63  93 S14       29.82F
SOUTH HAVEN    HVY RAIN  65  63  92 NW6       29.90F
$$
MIZ016>042-290600-
NORTHERN LOWER MICHIGAN

CITY           SKY/WX    TMP DP  RH WIND       PRES   REMARKS
ALPENA         CLOUDY    63  59  87 S15G21    29.80F
BEAVER ISLAND  CLOUDY    61  61 100 SE6       29.71S
BELLAIRE       LGT RAIN  64  58  82 S8        29.73R
CADILLAC       LGT RAIN  61  60  96 S14G23    29.76S
CHARLEVOIX     CLOUDY    64  60  88 S10G18    29.74R
FRANKFORT      CLOUDY    64  60  84 S7        29.72R
GAYLORD        LGT RAIN  62  55  77 S18G26    29.76F
GRAYLING       CLOUDY    62  57  86 S9G20     29.77F
HARBOR SPRINGS CLOUDY    64  60  87 CALM      29.73S
HOUGHTON LAKE  LGT RAIN  61  57  87 S14G23    29.78F
MANISTEE       CLOUDY    64  63  94 S8        29.73R
OSCODA         CLOUDY    64  56  77 S16G23    29.84S
PELLSTON       LGT RAIN  63  59  87 SE3       29.74S
ROGERS CITY    CLOUDY    62  58  88 S9G17     29.77F
TRAVERSE CITY  CLOUDY    65  60  84 VRB3      29.71R
$$
MIZ007>008-015-290600-
EASTERN UPPER MICHIGAN

CITY           SKY/WX    TMP DP  RH WIND       PRES   REMARKS
KINROSS        LGT RAIN  60  59  96 SE14      29.76F
MACKINAC ISLAN HVY RAIN  60  60 100 E3        29.75S
NEWBERRY       LGT RAIN  60  59  97 SE7       29.71F
S. S. MARIE    LGT RAIN  61  59  93 E9        29.76F FOG
MUNISING         N/A     61  60  97 S7        29.66S
$$
MIZ004>006-011>014-085-290600-
CENTRAL UPPER MICHIGAN

CITY           SKY/WX    TMP DP  RH WIND       PRES   REMARKS
MANISTIQUE     CLOUDY    59  55  88 SE8       29.69S FOG
ESCANABA       CLOUDY    62  60  93 S6        29.65F
MENOMINEE      CLOUDY    63  62  97 SW7       29.65S
SAWYER-GWINN   CLOUDY    59  58  97 SE8       29.66S FOG
$$
MIZ001>003-009>011-084-290600-
WESTERN UPPER MICHIGAN

CITY           SKY/WX    TMP DP  RH WIND       PRES   REMARKS
IRON MOUNTAIN  FOG       61  59  93 SE5       29.63S VSB 1/4
HOUGHTON       HVY RAIN  58  57  97 E10       29.61S VSB 1
COPPER HARBOR    N/A     58  57  97 SW8G16    29.62F
IRONWOOD       CLOUDY    67  64  90 S6        29.55S
$$

ABBREVIATIONS USED IN REMARKS
   TC - TEMPERATURE IN CELSIUS
  WCI - WIND CHILL INDEX
   HX - HEAT INDEX
  VSB - VISIBILITY





USA.gov is the U.S. government's official web portal to all federal, state and local government web resources and services.